Location: Caltech
(34.1382°N, 118.1253°W)
Time: 09:46:21
(UTC-07:00)

Tiros 1 despin weight - Visible Passes

Search period start: 21 October 2014 00:00
Search period end: 31 October 2014 00:00
Orbit: 601 x 652 km, 48.2° (Epoch: 20 October)

Date Brightness Start Highest point End Pass type
(mag) Time Alt. Az. Time Alt. Az. Time Alt. Az.
24 Oct ? 06:13:26 10° SSE 06:14:55 11° SE 06:16:23 10° ESE visible
25 Oct ? 06:29:53 10° S 06:33:47 26° SE 06:37:39 10° ENE visible
27 Oct ? 05:27:15 10° S 05:30:31 19° SE 05:33:47 10° E visible
28 Oct ? 05:45:01 10° SSW 05:49:26 41° SE 05:53:49 10° ENE visible
29 Oct ? 04:26:36 13° SE 04:27:15 13° SE 04:29:26 10° E visible
29 Oct ? 06:03:54 11° SW 06:08:29 88° SE 06:13:10 10° NE visible
30 Oct ? 04:45:59 29° SE 04:46:05 29° SE 04:50:09 10° ENE visible
30 Oct ? 06:23:16 11° WSW 06:27:41 47° NNW 06:32:12 10° NE visible
